TimeAKDT,TemperatureF,Dew PointF,Humidity,Sea Level PressureIn,VisibilityMPH,Wind Direction,Wind SpeedMPH,Gust SpeedMPH,PrecipitationIn,Events,Conditions,WindDirDegrees,DateUTC
12:55 AM,39.7,39.4,99,30.05,8.0,SSW,5.8,-,N/A,,Mostly Cloudy,200,2013-07-05 08:55:00
1:55 AM,39.9,39.4,98,30.04,8.0,Variable,3.5,-,N/A,,Mostly Cloudy,0,2013-07-05 09:55:00
2:55 AM,39.2,38.8,99,30.03,4.0,South,9.2,-,N/A,,Mostly Cloudy,180,2013-07-05 10:55:00
3:55 AM,39.4,38.5,97,30.02,3.0,SE,4.6,19.6,N/A,Rain,Light Rain Showers,130,2013-07-05 11:55:00
4:55 AM,38.7,38.5,99,29.99,2.0,SSW,12.7,20.7,N/A,Rain,Light Rain Showers,200,2013-07-05 12:55:00
5:55 AM,39.4,38.8,98,29.99,2.5,South,9.2,18.4,N/A,,Mostly Cloudy,170,2013-07-05 13:55:00
6:55 AM,39.4,39.0,99,29.99,4.0,WSW,2.3,-,N/A,,Overcast,250,2013-07-05 14:55:00
7:55 AM,41.5,40.3,95,29.99,7.0,Variable,3.5,-,N/A,,Light Drizzle,0,2013-07-05 15:55:00
8:55 AM,42.3,41.0,95,29.97,8.0,NNW,3.5,-,N/A,,Overcast,340,2013-07-05 16:55:00
9:55 AM,44.6,41.0,87,29.97,10.0,South,6.9,-,N/A,,Overcast,190,2013-07-05 17:55:00
10:20 AM,46.4,42.8,87,29.96,10.0,Variable,6.9,-,N/A,,Overcast,0,2013-07-05 18:20:00
10:55 AM,45.5,42.4,89,29.96,10.0,SE,2.3,13.8,N/A,,Overcast,140,2013-07-05 18:55:00
11:55 AM,47.7,43.7,86,29.94,10.0,ESE,15.0,19.6,N/A,,Overcast,120,2013-07-05 19:55:00
12:55 PM,47.3,43.7,87,29.93,10.0,SE,13.8,25.3,N/A,Thunderstorm,Thunderstorm,130,2013-07-05 20:55:00
1:55 PM,49.3,43.3,80,29.92,10.0,SE,13.8,24.2,N/A,Thunderstorm,Overcast,130,2013-07-05 21:55:00
2:55 PM,49.5,44.1,82,29.91,10.0,SE,11.5,26.5,N/A,,Mostly Cloudy,130,2013-07-05 22:55:00
3:55 PM,49.5,46.4,89,29.89,10.0,SE,12.7,21.9,N/A,,Mostly Cloudy,130,2013-07-05 23:55:00
4:55 PM,49.3,45.5,87,29.86,10.0,SE,21.9,27.6,N/A,,Mostly Cloudy,140,2013-07-06 00:55:00
5:55 PM,47.7,45.9,93,29.85,10.0,SSE,15.0,25.3,N/A,,Overcast,160,2013-07-06 01:55:00
6:55 PM,46.9,45.3,94,29.85,2.5,South,12.7,-,N/A,Rain,Light Rain,180,2013-07-06 02:55:00
7:55 PM,46.4,45.3,96,29.83,10.0,SSE,11.5,-,0.03,Rain,Light Rain Showers,160,2013-07-06 03:55:00
8:55 PM,45.9,44.8,96,29.82,5.0,SSE,12.7,20.7,0.02,Rain,Light Rain Showers,160,2013-07-06 04:55:00
9:55 PM,44.6,44.6,100,29.79,2.5,South,23.0,29.9,0.02,Rain,Light Rain Showers,180,2013-07-06 05:55:00
10:55 PM,45.1,43.7,95,29.79,2.5,South,23.0,34.5,0.02,Rain,Light Rain,180,2013-07-06 06:55:00
11:55 PM,44.2,43.0,95,29.81,7.0,South,18.4,28.8,0.06,Rain,Light Rain,180,2013-07-06 07:55:00